sat.trackr.live / text

‹ back to catalog

STARLINK-11619 [DTC]

NORAD 63272 · 2025-053H

PAYLOAD ACTIVE UNKNOWN

§ Identity

Operator
Country
US
Launch date
2025-03-15
Launch site
AFETR
Launch vehicle
Mass (kg)
RCS (m²)

Purposes: comms

External: N2YO · Heavens-Above · Gunter

§ Orbital elements

Epoch: 2026-05-25T00:26:52.781280Z

Period
91.67 min
Inclination
43.0008°
Eccentricity
0.0002832
Mean motion
15.70847139 rev/d
Perigee alt
354.6 km
Apogee alt
358.4 km
Semi-major
6,734.6 km
B*
1.2310e-3
RAAN
12.1813°
Arg perigee
243.8552°
Mean anomaly
116.2025°
Rev number
6,967

§ Raw data

STARLINK-11619 [DTC]1 63272U 25053H   26145.01866645  .00160664  00000+0  12310-2 0  99902 63272  43.0008  12.1813 0002832 243.8552 116.2025 15.70847139 69677

JSON: /api/v1/satellites/63272 · /tle

For live sub-satellite position, see the globe view (requires WebGL).

§ Visibility from observer

Set your observer location to see the next 7 days of passes ≥ 10°. The values pass through the URL so the page stays shareable.

No JS? Fill the form by hand. The geolocation button needs JavaScript.